Fantasy — H3GS — position and weather

sailwx.info

Track history (hours):
 
Tides and Currents Weather Stations Pressure Air Temp Water Temp Dewpoint Dewpoint Depression Visibility Wind Speed Wind Dir Waves Ship Positions

Fantasy

Operator: Carnival Cruise Lines

Last reported at 2020-Jan-19 03:30 UTC. Time now 2020-Jan-19 15:59 UTC.
Position N 21°56' W 089°56'.

Type: Ship. MMSI: 353486000.

Date/timePositionNaut miles runAvg speedWind from/ knotsBaromVisibWave heightAir tempDewpointWater temp
2020-Jan-19 03:30N 21°56' W 089°56'3915.3
2020-Jan-19 00:59N 21°21' W 089°41'0 0.0
2020-Jan-19 00:29N 21°21' W 089°41'0 0.0
2020-Jan-18 21:59N 21°21' W 089°41'0 0.0
2020-Jan-18 21:29N 21°21' W 089°41'0 0.0
2020-Jan-18 20:29N 21°21' W 089°41'0 0.0
2020-Jan-18 19:29N 21°21' W 089°41'0 0.0
2020-Jan-18 17:59N 21°21' W 089°41'0 0.0
2020-Jan-18 17:29N 21°21' W 089°41'0 0.4
2020-Jan-18 16:30N 21°21' W 089°41'1211.9
2020-Jan-18 15:30N 21°32' W 089°43'918.6
2020-Jan-18 15:00N 21°41' W 089°46'6415.8
2020-Jan-18 11:00N 22°42' W 090°06'4221.2 110 / 301019.210.8 25.020.424.9
2020-Jan-18 09:00N 23°24' W 090°00'17619.6 120 / 301019.310.8 24.019.426.0
2020-Jan-18 00:00N 26°18' W 089°30'26116.9 110 / 251020.910.8 24.021.024.1
2020-Jan-17 08:30N 30°27' W 088°01'14 9.2
2020-Jan-17 06:59N 30°41' W 088°02'0 0.0
2020-Jan-17 04:59N 30°41' W 088°02'0 0.0
2020-Jan-17 04:29N 30°41' W 088°02'0 0.0
2020-Jan-17 03:59N 30°41' W 088°02'0 0.0
2020-Jan-17 02:26N 30°41' W 088°02'0 0.0
2020-Jan-17 00:29N 30°41' W 088°02'84 6.7
2020-Jan-16 12:00N 29°24' W 087°24'3712.2 180 / 51025.2 2.2 22.022.021.3
2020-Jan-16 09:00N 29°54' W 087°48'40416.8 190 / 81023.7 2.2 21.021.026.0
2020-Jan-15 09:00N 23°12' W 087°00'15717.5 120 / 151019.8 5.4 21.017.826.0
2020-Jan-15 00:00N 20°35' W 086°56'7 2.8
2020-Jan-14 21:30N 20°29' W 086°59'0 0.0
2020-Jan-14 20:57N 20°29' W 086°59'0 0.0
2020-Jan-14 19:27N 20°29' W 086°59'0 0.0
2020-Jan-14 18:30N 20°29' W 086°59'0 0.0
2020-Jan-14 18:00N 20°29' W 086°59'0 0.0
2020-Jan-14 17:30N 20°29' W 086°59'0 0.0
2020-Jan-14 17:00N 20°29' W 086°59'0 0.0
2020-Jan-14 15:00N 20°29' W 086°59'0 0.0
2020-Jan-14 14:30N 20°29' W 086°59'7 7.3
2020-Jan-14 13:30N 20°36' W 086°56'3915.5
2020-Jan-14 11:00N 21°06' W 086°30'15515.5 090 / 301018.810.8 27.024.126.7
2020-Jan-14 01:01N 21°50' W 089°09'42 9.2
2020-Jan-13 20:29N 21°21' W 089°41'0 0.0
2020-Jan-13 17:59N 21°21' W 089°41'0 0.0
2020-Jan-13 16:59N 21°21' W 089°41'15 3.1
2020-Jan-13 12:00N 21°35' W 089°44'4715.6
2020-Jan-13 09:00N 22°18' W 090°06'50116.7 070 / 241019.3 5.4 24.015.826.0
2020-Jan-12 03:00N 30°26' W 088°01'15 7.3
2020-Jan-12 00:58N 30°41' W 088°02'0 0.0
2020-Jan-11 23:58N 30°41' W 088°02'0 0.0
2020-Jan-11 22:58N 30°41' W 088°02'0 0.0
2020-Jan-11 22:28N 30°41' W 088°02'0 0.0
2020-Jan-11 21:28N 30°41' W 088°02'0 0.0
2020-Jan-11 20:58N 30°41' W 088°02'0 0.0
2020-Jan-11 16:55N 30°41' W 088°02'0 0.0
2020-Jan-11 15:55N 30°41' W 088°02'10 2.0
2020-Jan-11 11:00N 30°31' W 088°01'14013.9
2020-Jan-11 01:00N 28°12' W 087°54'26216.4 140 / 321019.0 5.4 25.022.022.0
2020-Jan-10 09:00N 24°06' W 089°36'16515.8 110 / 281017.8 5.4 23.018.326.0
2020-Jan-09 22:30N 21°21' W 089°41'1 0.2
2020-Jan-09 19:00N 21°20' W 089°41'0 0.0
2020-Jan-09 17:24N 21°20' W 089°41'0 0.0
2020-Jan-09 14:27N 21°20' W 089°41'39 8.7
2020-Jan-09 10:00N 21°42' W 089°06'2323.1 110 / 221020.910.8 25.018.825.0
2020-Jan-09 09:00N 21°48' W 088°42'   110 / 211021.110.8 25.018.826.0
Track history (hours):
 
Tides and Currents Weather Stations Pressure Air Temp Water Temp Dewpoint Dewpoint Depression Visibility Wind Speed Wind Dir Waves Ship Positions

Fantasy

Operator: Carnival Cruise Lines

Last reported at 2020-Jan-19 03:30 UTC. Time now 2020-Jan-19 15:59 UTC.
Position N 21°56' W 089°56'.

Type: Ship. MMSI: 353486000.

Date/timePositionNaut miles runAvg speedWind from/ knotsBaromVisibWave heightAir tempDewpointWater temp
2020-Jan-19 03:30N 21°56' W 089°56'3915.3
2020-Jan-19 00:59N 21°21' W 089°41'0 0.0
2020-Jan-19 00:29N 21°21' W 089°41'0 0.0
2020-Jan-18 21:59N 21°21' W 089°41'0 0.0
2020-Jan-18 21:29N 21°21' W 089°41'0 0.0
2020-Jan-18 20:29N 21°21' W 089°41'0 0.0
2020-Jan-18 19:29N 21°21' W 089°41'0 0.0
2020-Jan-18 17:59N 21°21' W 089°41'0 0.0
2020-Jan-18 17:29N 21°21' W 089°41'0 0.4
2020-Jan-18 16:30N 21°21' W 089°41'1211.9
2020-Jan-18 15:30N 21°32' W 089°43'918.6
2020-Jan-18 15:00N 21°41' W 089°46'6415.8
2020-Jan-18 11:00N 22°42' W 090°06'4221.2 110 / 301019.210.8 25.020.424.9
2020-Jan-18 09:00N 23°24' W 090°00'17619.6 120 / 301019.310.8 24.019.426.0
2020-Jan-18 00:00N 26°18' W 089°30'26116.9 110 / 251020.910.8 24.021.024.1
2020-Jan-17 08:30N 30°27' W 088°01'14 9.2
2020-Jan-17 06:59N 30°41' W 088°02'0 0.0
2020-Jan-17 04:59N 30°41' W 088°02'0 0.0
2020-Jan-17 04:29N 30°41' W 088°02'0 0.0
2020-Jan-17 03:59N 30°41' W 088°02'0 0.0
2020-Jan-17 02:26N 30°41' W 088°02'0 0.0
2020-Jan-17 00:29N 30°41' W 088°02'84 6.7
2020-Jan-16 12:00N 29°24' W 087°24'3712.2 180 / 51025.2 2.2 22.022.021.3
2020-Jan-16 09:00N 29°54' W 087°48'40416.8 190 / 81023.7 2.2 21.021.026.0
2020-Jan-15 09:00N 23°12' W 087°00'15717.5 120 / 151019.8 5.4 21.017.826.0
2020-Jan-15 00:00N 20°35' W 086°56'7 2.8
2020-Jan-14 21:30N 20°29' W 086°59'0 0.0
2020-Jan-14 20:57N 20°29' W 086°59'0 0.0
2020-Jan-14 19:27N 20°29' W 086°59'0 0.0
2020-Jan-14 18:30N 20°29' W 086°59'0 0.0
2020-Jan-14 18:00N 20°29' W 086°59'0 0.0
2020-Jan-14 17:30N 20°29' W 086°59'0 0.0
2020-Jan-14 17:00N 20°29' W 086°59'0 0.0
2020-Jan-14 15:00N 20°29' W 086°59'0 0.0
2020-Jan-14 14:30N 20°29' W 086°59'7 7.3
2020-Jan-14 13:30N 20°36' W 086°56'3915.5
2020-Jan-14 11:00N 21°06' W 086°30'15515.5 090 / 301018.810.8 27.024.126.7
2020-Jan-14 01:01N 21°50' W 089°09'42 9.2
2020-Jan-13 20:29N 21°21' W 089°41'0 0.0
2020-Jan-13 17:59N 21°21' W 089°41'0 0.0
2020-Jan-13 16:59N 21°21' W 089°41'15 3.1
2020-Jan-13 12:00N 21°35' W 089°44'4715.6
2020-Jan-13 09:00N 22°18' W 090°06'50116.7 070 / 241019.3 5.4 24.015.826.0
2020-Jan-12 03:00N 30°26' W 088°01'15 7.3
2020-Jan-12 00:58N 30°41' W 088°02'0 0.0
2020-Jan-11 23:58N 30°41' W 088°02'0 0.0
2020-Jan-11 22:58N 30°41' W 088°02'0 0.0
2020-Jan-11 22:28N 30°41' W 088°02'0 0.0
2020-Jan-11 21:28N 30°41' W 088°02'0 0.0
2020-Jan-11 20:58N 30°41' W 088°02'0 0.0
2020-Jan-11 16:55N 30°41' W 088°02'0 0.0
2020-Jan-11 15:55N 30°41' W 088°02'10 2.0
2020-Jan-11 11:00N 30°31' W 088°01'14013.9
2020-Jan-11 01:00N 28°12' W 087°54'26216.4 140 / 321019.0 5.4 25.022.022.0
2020-Jan-10 09:00N 24°06' W 089°36'16515.8 110 / 281017.8 5.4 23.018.326.0
2020-Jan-09 22:30N 21°21' W 089°41'1 0.2
2020-Jan-09 19:00N 21°20' W 089°41'0 0.0
2020-Jan-09 17:24N 21°20' W 089°41'0 0.0
2020-Jan-09 14:27N 21°20' W 089°41'39 8.7
2020-Jan-09 10:00N 21°42' W 089°06'2323.1 110 / 221020.910.8 25.018.825.0
2020-Jan-09 09:00N 21°48' W 088°42'   110 / 211021.110.8 25.018.826.0

Dump ship's entire track history